#timestamp,LO_Frequency,Hit,StdDev 
1709989215.8,286047002.4,N
1709989235.6,286046999.7,N
1709989255.4,286047000.9,N
1709989275.3,286047001.2,N
1709989295.1,286047000.7,N
1709989315.9,286047000.9,N
1709989335.7,286047000.3,N
1709989355.5,286047001.2,N
1709989375.4,286046998.7,N
1709989395.2,286046999.6,N
1709989415.0,286046996.5,Y
1709989415.9,286046996.5,P
1709989465.8,286046995.3,E
1709989475.7,286046999.5,N
1709989495.6,286047002.2,P
1709989515.4,286047002.5,N
1709989535.2,286047001.0,N
1709989555.1,286046999.9,N
1709989556.0,286046999.9,N
1709989575.8,286047000.4,N
1709989595.7,286046999.7,N
1709989615.5,286046999.8,N
1709989635.3,286046999.7,N
1709989655.2,286047001.6,N
1709989675.0,286047004.4,Y
1709989675.9,286047004.4,P
1709989695.8,286047002.0,N
1709989715.6,286047001.4,N
1709989735.4,286047002.3,N
1709989755.3,286046999.9,N
1709989775.1,286046998.2,N
1709989795.9,286046998.6,N
1709989815.7,286046998.6,N
1709989835.5,286047002.4,N
1709989855.4,286047002.6,N
1709989875.2,286047000.5,N
1709989895.0,286046999.3,N
1709989895.9,286046999.3,N
1709989915.8,286046999.4,N
1709989935.6,286046996.7,N
1709989955.5,286046999.6,N
1709989975.3,286046998.1,N
1709989995.1,286046998.3,N
1709990015.9,286046998.3,N
1709990035.7,286047001.1,N
1709990055.6,286047000.9,N
1709990075.4,286047000.3,N
1709990095.2,286046999.7,N
1709990115.1,286047000.8,N
1709990116.0,286047000.8,N
1709990135.8,286047000.1,N
1709990155.7,286047001.6,N
1709990175.5,286047002.2,N
1709990195.3,286047001.6,N
1709990215.2,286047004.3,N
1709990235.0,286047001.8,N
1709990235.9,286047001.8,N
1709990255.7,286047003.9,N
1709990275.6,286047001.4,N
1709990295.4,286047002.2,N
1709990315.3,286047001.5,N
1709990335.1,286047002.0,N
1709990355.9,286047003.8,N
1709990375.7,286047005.6,Y
1709990395.5,286047004.0,P
1709990415.4,286047003.7,N
1709990435.2,286047001.5,N
1709990455.0,286047004.0,N
1709990455.9,286047004.0,N
1709990475.8,286047002.2,N
1709990495.6,286046999.9,N
1709990515.5,286046999.9,N
1709990535.3,286047000.2,N
1709990555.1,286047000.1,N
1709990575.9,286047000.2,N
1709990595.7,286047002.4,N
1709990615.5,286047002.6,N
1709990635.4,286047002.7,N
1709990655.2,286047000.1,N
1709990675.1,286047004.4,N
1709990676.0,286047004.4,N
1709990695.8,286047003.8,N
1709990715.6,286047004.2,N
1709990735.5,286047004.0,N
1709990755.3,286047004.0,N
1709990775.1,286047002.5,N
1709990795.9,286047002.6,N
1709990815.7,286047002.6,N
1709990835.6,286047002.6,N
1709990855.4,286047000.1,N
1709990875.2,286047002.6,N
1709990895.1,286047002.7,N
1709990896.0,286047002.7,N
1709990915.8,286046999.8,N
1709990935.7,286047001.5,N
1709990955.5,286047001.5,N
1709990975.3,286047001.7,N
1709990995.2,286047001.3,N
1709991015.0,286047001.8,N
1709991015.9,286047001.8,N
1709991035.8,286047002.2,N
1709991055.6,286047001.8,N
1709991075.4,286047003.8,N
1709991095.3,286047004.4,Y
1709991115.1,286047002.8,P
1709991135.9,286047000.3,N
1709991155.7,286047001.2,N
1709991175.5,286046998.2,N
1709991195.4,286047001.2,N
1709991215.2,286046998.6,N
1709991235.0,286046998.5,N
1709991235.9,286046998.5,N
1709991255.8,286047000.7,N
1709991275.6,286046998.6,N
1709991295.5,286047000.2,N
1709991315.3,286046999.7,N
1709991335.1,286047000.5,N
1709991355.9,286046999.3,N
1709991375.7,286046999.0,N
1709991395.5,286046999.3,N
1709991415.4,286046999.3,N
1709991435.2,286046998.4,N
1709991455.1,286047000.9,N
1709991456.0,286047000.9,N
1709991475.8,286047001.2,N
1709991495.6,286046998.3,N
1709991515.5,286046998.7,N
1709991535.3,286046998.8,N
1709991555.1,286046998.7,N
1709991575.9,286046999.4,N
1709991595.7,286046998.8,N
1709991615.6,286046998.7,N
1709991635.4,286046998.8,N
1709991655.2,286046999.1,N
1709991675.1,286046999.3,N
1709991676.0,286046999.3,N
1709991695.8,286046999.4,N
1709991715.6,286046997.1,Y
1709991735.5,286046998.7,P
1709991755.3,286046998.3,P
1709991775.2,286046998.9,N
1709991795.9,286046999.0,N
1709991815.7,286046999.2,N
1709991835.6,286046998.9,Y
1709991855.4,286047000.8,P
1709991875.3,286047000.6,N
1709991895.1,286047000.9,N
1709991896.0,286047000.9,N
1709991915.8,286047000.7,N
1709991935.7,286047001.2,N
1709991955.5,286047001.2,N
1709991975.3,286047000.9,N
1709991995.2,286047000.9,N
1709992015.0,286046999.9,N
1709992015.9,286046999.9,N
1709992035.8,286047000.9,N
1709992055.6,286047001.0,N
1709992075.4,286047000.8,N
1709992095.3,286047000.4,N
1709992115.1,286046999.9,N
1709992135.8,286047000.0,N
1709992155.7,286047001.0,N
1709992175.5,286047000.4,N
1709992195.4,286047000.7,N
1709992215.2,286047000.8,N
1709992235.0,286047001.2,N
1709992235.9,286047001.2,N
1709992255.8,286047000.9,N
1709992275.6,286046999.8,N
1709992295.4,286047000.4,N
1709992315.3,286047000.6,N
1709992335.1,286047002.3,Y
1709992355.9,286047000.1,P
1709992375.7,286047000.7,N
1709992395.5,286046998.3,P
1709992415.4,286046999.2,N
1709992435.2,286046996.7,Y
1709992455.1,286046999.5,P
1709992456.0,286046999.5,P
1709992475.8,286046997.3,P
1709992495.6,286046998.4,N
1709992515.5,286046998.3,N
1709992535.3,286046998.3,N
1709992555.1,286047001.0,N
1709992575.9,286047002.4,N
1709992595.7,286047002.3,N
1709992615.6,286047002.2,N
1709992635.4,286047000.2,N
1709992655.2,286047002.3,N
1709992675.1,286046999.8,N
1709992676.0,286046999.8,N
1709992695.8,286047000.4,N
1709992715.6,286047002.8,N
1709992735.5,286047000.3,N
1709992755.3,286047000.6,N
1709992775.2,286047002.3,N
1709992795.9,286047000.5,N
